Regional Weather Roundup
Issued by NWS

Home | Current Version | Previous Version | Graphics & Text | Print | Product List | Glossary On
Versions: 1 2 3 4 5 6 7 8 9 10 11 12 13 14 15 16 17 18 19 20 21 22 23 24 25 26 27 28 29 30 31 32 33 34 35 36 37 38 39 40 41 42 43 44 45 46 47 48 49 50
933
ASUS43 KMKX 232100
RWRWI

WISCONSIN REGIONAL WEATHER ROUNDUP
NATIONAL WEATHER SERVICE MILWAUKEE/SULLIVAN WI
400 PM CDT SUN JUL 23 2017

NOTE: "FAIR" INDICATES FEW OR NO CLOUDS BELOW 12,000 FEET WITH NO
SIGNIFICANT WEATHER AND/OR OBSTRUCTIONS TO VISIBILITY.

WIZ001-002-006>008-014>016-023>028-232200-
NORTHWEST WISCONSIN

CITY           SKY/WX    TMP DP  RH WIND       PRES   REMARKS
SUPERIOR ARPT  NOT AVBL
ASHLAND        CLOUDY    62  59  90 NE12      30.00R
HAYWARD        LGT RAIN  62  58  86 N9        29.99R
SIREN          CLOUDY    68  56  65 N10G18    29.98S
CUMBERLAND     CLOUDY    64  55  72 N13G18    29.97S
RICE LAKE      CLOUDY    66  57  72 N10G20    29.98R
CHETEK         CLOUDY    68  59  72 N12       29.95S
LADYSMITH      CLOUDY    66  59  76 N13       29.97R
EAU CLAIRE     NOT AVBL
MENOMONIE      PTSUNNY   71  58  63 NW16      29.94S
NEW RICHMOND   PTSUNNY   72  56  57 N15       29.96R
OSCEOLA        CLOUDY    72  56  57 N14       29.99R
$$

WIZ003>005-009-010-017-018-232200-
NORTH CENTRAL WISCONSIN

CITY           SKY/WX    TMP DP  RH WIND       PRES   REMARKS
MANITOWISH WTR CLOUDY    60  60 100 N7        29.96R
ARBOR VITAE    CLOUDY    64  59  82 N9G16     29.94R
WOODRUFF       CLOUDY    64  59  82 N9G16     29.94R
RHINELANDER    CLOUDY    65  59  81 N8        29.93R
EAGLE RIVER    CLOUDY    63  58  84 N14       29.94R
LAND O LAKES   CLOUDY    63  58  82 N8        29.97R
PHILLIPS       CLOUDY    65  60  82 N8        29.94R
TOMAHAWK         N/A     66  58  76 N12       29.93R
MEDFORD        PTSUNNY   71  59  66 NW17      29.90R
MERRILL        SUNNY     74  59  60 N15       29.88S
$$

WIZ029-030-035-036-043>047-232200-
CENTRAL WISCONSIN

CITY           SKY/WX    TMP DP  RH WIND       PRES   REMARKS
WAUSAU         MOSUNNY   76  58  53 N13G22    29.85R
MOSINEE        MOSUNNY   77  61  57 NW14G20   29.87R
MARSHFIELD     SUNNY     76  57  51 NW15G23   29.87R
STEVENS POINT  MOSUNNY   79  56  44 N10G17    29.84R
WAUPACA        MOSUNNY   82  59  45 W10       29.81S HX  82
WAUTOMA        MOSUNNY   82  60  47 NW18      29.81S HX  82
WISC RAPIDS    PTSUNNY   81  62  52 NW13G24   29.86R HX  82
CAMP DOUGLAS   NOT AVBL
$$

WIZ011>013-019>022-031-037>040-048>050-232200-
NORTHEAST WISCONSIN

CITY           SKY/WX    TMP DP  RH WIND       PRES   REMARKS
ANTIGO         PTSUNNY   72  60  65 N13G20    29.88R
SHAWANO        PTSUNNY   79  61  53 NW7       29.82R HX  80
OCONTO         PTSUNNY   75  66  73 E7        29.80R
STURGEON BAY     N/A     73  66  78 N15       29.82R
GREEN BAY      CLOUDY    77  66  68 N5        29.81R
MANITOWOC      NOT AVBL
APPLETON       PTSUNNY   79  59  50 N8        29.80R HX  80
CLINTONVILLE   MOSUNNY   81  61  50 N9G17     29.81R HX  81
OSHKOSH        MOSUNNY   78  65  63 NE12G20   29.80R HX  80
$$

WIZ032>034-041-042-053>061-232200-
SOUTHWEST WISCONSIN

CITY           SKY/WX    TMP DP  RH WIND       PRES   REMARKS
LA CROSSE      MOSUNNY   81  63  54 NW15G22   29.86S HX  82
SPARTA         MOSUNNY   78  61  55 NW9       29.87R
VIROQUA        CLOUDY    75  61  62 NW9G16    29.89R
BOSCOBEL       MOSUNNY   83  62  49 NW10G20   29.84S HX  84
PRAIRIE DU CHI MOSUNNY   81  59  47 NW17      29.84S HX  81
PLATTEVILLE    SUNNY     80  63  55 N12G20    29.85R HX  82
$$

WIZ056-057-062-063-064-067-068-232200-
SOUTH CENTRAL WISCONSIN

CITY           SKY/WX    TMP DP  RH WIND       PRES   REMARKS
REEDSBURG      MOSUNNY   79  62  55 NW12G21   29.84R HX  81
BARABOO/DELLS  MOSUNNY   81  58  45 NW10      29.83S HX  81
LONE ROCK      NOT AVBL
MINERAL POINT  MOSUNNY   82  61  47 NW13G18   29.85R HX  83
MADISON        MOSUNNY   81  63  54 N12G22    29.80F HX  82
MIDDLETON      PTSUNNY   82  63  51 N14G21    29.82F HX  83
WATERTOWN      MOSUNNY   81  64  55 NW9       29.79F HX  83
MONROE         SUNNY     81  59  47 N16G22    29.80S HX  81
JANESVILLE     PTSUNNY   81  70  69 N8        29.79S HX  84
$$

WIZ051-052-058>065-066-070>072-232200-
SOUTHEAST WISCONSIN

CITY           SKY/WX    TMP DP  RH WIND       PRES   REMARKS
MILWAUKEE      PTSUNNY   83  64  52 N6        29.78F HX  84
WAUKESHA       MOSUNNY   81  55  41 NW9       29.80F HX  80
MILWAUKEE/TIMM MOSUNNY   82  57  42 W7        29.79F HX  82
RACINE         CLOUDY    78  68  71 CALM      29.80F HX  80
KENOSHA        CLOUDY    77  66  68 NE3       29.79F
FOND DU LAC    MOSUNNY   83  59  44 NW10      29.79F HX  83
SHEBOYGAN      PTSUNNY   77  69  76 NE8       29.79S
WEST BEND      MOSUNNY   81  59  47 NW8       29.80S HX  81
JUNEAU         MOSUNNY   80  61  52 NW7       29.82S HX  81
$$

LSZ147-162-232200-
LAKE SUPERIOR

STATION/POSITION TIME  TEMP    WIND        PRES    WAVE
                       AIR SEA DIR/SP/G            HT/PER
                 (UTC) (F)     (DEG/KT/KT) (MB)    (FT/S)
W MID LAKE BUOY  1950   51 48   30/  8/ 10 1015.3R   2/ 4
DEVILS ISLAND    2000   57      60/  7/  8 1015.8R
SAXON HARBOR     2040   59      30/  6/  9 1015.2R
$$

LMZ867-665-643>646-232200-
LAKE MICHIGAN

STATION/POSITION TIME  TEMP    WIND        PRES    WAVE
                       AIR SEA DIR/SP/G            HT/PER
                 (UTC) (F)     (DEG/KT/KT) (MB)    (FT/S)
CHAMBERS ISLAND  2040   70     340/ 21/ 24 1009.1R
S GREEN BAY BUOY 2030   73 76   70/ 10/ 14 1008.9R
N MID LAKE BUOY  1950   66 67  330/ 14/ 16 1009.1R   2/ 3
NORTHPORT PIER   2040   67     340/ 18/ 24 1009.8R
KEWAUNEE LAKESHO 2030   71     120/  2/  3 1008.4R
SHEBOYGAN LAKESH 2000   69      60/ 12/ 13 1008.3R
PORT WASHINGTON  2040   84     310/  6/ 11 1009.5F
ATWATER BUOY     1909   74 70  340/  6/  6 1009.1R
MILWAUKEE LAKESH 2030   81     310/  4/  5   N/A
S MID LAKE BUOY  1950   74 72  280/  4/  4 1008.7R   1
KENOSHA   LAKESH 2000   80     350/  4/  9 1008.8
$$

TC  - TEMPERATURE IN CELSIUS
VSB - VISIBILITY IN STATUTE MILES
WCI - WIND CHILL INDEX
HX  - HEAT INDEX





USA.gov is the U.S. government's official web portal to all federal, state and local government web resources and services.